FW7733 Weather Reports


time (UTC)temp
C
wind
direction
speed
KPH
gust
KPH
rain 1hr
cm
rain 24hr
cm
rain mn
cm
humidity
%
barometer
mb
20260503004530 11 184 1.6 3.2 0.00 0.00 0.00 86 1016.9
20260503003029 11 184 0.0 3.2 0.00 0.00 0.00 87 1016.9
20260503001529 11 0 0.0 4.8 0.00 0.00 0.00 86 1017.1
20260503000033 12 184 3.2 6.4 0.00 0.00 0.00 84 1017.1
20260502234530 12 193 0.0 3.2 0.00 0.00 0.00 85 1017.2
20260502233027 12 193 0.0 4.8 0.00 0.00 0.00 84 1017.2
20260502231531 12 189 1.6 3.2 0.00 0.00 0.00 83 1017.2
20260502230033 13 210 1.6 3.2 0.00 0.00 0.00 80 1017.3
20260502224529 13 0 0.0 1.6 0.00 0.00 0.00 80 1017.2
20260502223028 14 0 0.0 0.0 0.00 0.00 0.00 79 1017.2
20260502221529 14 0 0.0 3.2 0.00 0.00 0.00 78 1017.1
20260502220040 14 189 1.6 6.4 0.00 0.00 0.00 77 1016.9
20260502214531 15 0 0.0 3.2 0.00 0.00 0.00 77 1016.8
20260502213029 15 235 1.6 6.4 0.00 0.00 0.00 75 1016.8
20260502211542 15 199 3.2 6.4 0.00 0.00 0.00 74 1016.8
20260502210030 16 184 3.2 8.0 0.00 0.00 0.00 72 1016.7
20260502204530 16 180 3.2 6.4 0.00 0.00 0.00 73 1016.7
20260502203027 16 281 3.2 8.0 0.00 0.00 0.00 72 1016.9
20260502201527 17 211 3.2 4.8 0.00 0.00 0.00 70 1016.9
20260502200031 17 0 0.0 6.4 0.00 0.00 0.00 67 1016.8
20260502194532 18 185 3.2 6.4 0.00 0.00 0.00 67 1016.8
20260502193032 18 185 3.2 6.4 0.00 0.00 0.00 68 1016.7
20260502191530 18 215 1.6 3.2 0.00 0.00 0.00 68 1016.5
20260502190031 18 215 1.6 8.0 0.00 0.00 0.00 67 1016.6
20260502184533 18 200 3.2 6.4 0.00 0.00 0.00 69 1016.5
20260502183031 19 0 0.0 1.6 0.00 0.00 0.00 68 1016.4
20260502181529 20 0 0.0 3.2 0.00 0.00 0.00 66 1016.3
20260502163028 25 321 1.6 14.5 0.00 0.00 0.00 42 1016.4
20260502161529 26 9 1.6 11.3 0.00 0.00 0.00 42 1016.6
20260502151530 26 11 3.2 12.9 0.00 0.00 0.00 44 1017.3
20260502123029 23 144 8.0 16.1 0.00 0.00 0.00 49 1019.3
20260502121530 23 36 6.4 14.5 0.00 0.00 0.00 53 1019.5
20260502114530 23 32 1.6 19.3 0.00 0.00 0.00 51 1020.0
20260502113030 22 29 1.6 11.3 0.00 0.00 0.00 54 1020.2
20260502111527 22 0 3.2 12.9 0.00 0.00 0.00 51 1020.5
20260502110029 22 108 3.2 11.3 0.00 0.00 0.00 51 1020.8
20260502104548 22 0 1.6 11.3 0.00 0.00 0.00 53 1021.0
20260502103035 21 139 4.8 12.9 0.00 0.00 0.00 55 1021.1
20260502101528 21 120 3.2 12.9 0.00 0.00 0.00 55 1021.4
20260502071529 14 209 0.0 3.2 0.00 0.00 0.00 71 1022.8
20260502070028 13 0 1.6 4.8 0.00 0.00 0.00 73 1022.9
20260502064530 12 209 0.0 3.2 0.00 0.00 0.00 78 1023.1
20260502063028 11 209 0.0 3.2 0.00 0.00 0.00 80 1022.9
20260502061530 10 0 0.0 1.6 0.00 0.00 0.00 87 1023.0
20260502060027 9 0 0.0 1.6 0.00 0.00 0.00 90 1022.9
20260502054529 8 0 0.0 1.6 0.00 0.00 0.00 91 1023.1
20260502053029 7 0 0.0 3.2 0.00 0.00 0.00 92 1023.0
20260502051528 7 0 0.0 4.8 0.00 0.00 0.00 92 1023.2
20260502050030 7 0 0.0 0.0 0.00 0.00 0.00 93 1023.0
20260502044527 6 0 0.0 0.0 0.00 0.00 0.00 93 1022.9
20260502043029 6 248 1.6 6.4 0.00 0.00 0.00 92 1022.8
20260502041535 6 181 0.0 3.2 0.00 0.00 0.00 92 1022.8
20260502040029 6 0 0.0 1.6 0.00 0.00 0.00 92 1022.8
20260502034532 6 0 0.0 3.2 0.00 0.00 0.00 91 1022.7
20260502033031 6 0 0.0 3.2 0.00 0.00 0.00 91 1022.7
20260502031530 7 0 0.0 1.6 0.00 0.00 0.00 90 1022.7
20260502030030 7 180 1.6 4.8 0.00 0.00 0.00 90 1022.8
20260502024535 7 0 0.0 8.0 0.00 0.00 0.00 90 1022.8
20260502023030 7 0 0.0 3.2 0.00 0.00 0.00 90 1022.7
20260502021528 7 196 1.6 4.8 0.00 0.00 0.00 89 1022.7
20260502020028 7 202 0.0 3.2 0.00 0.00 0.00 89 1022.7
20260502014531 7 202 0.0 1.6 0.00 0.00 0.00 88 1022.7
20260502013029 7 0 0.0 1.6 0.00 0.00 0.00 87 1022.7
20260502011549 8 0 0.0 3.2 0.00 0.00 0.00 86 1022.8
20260502010030 8 0 0.0 3.2 0.00 0.00 0.00 86 1022.7